sat.trackr.live / text

‹ back to catalog

2025-313BE

NORAD 67482 · 2025-313BE

PAYLOAD ACTIVE UNKNOWN

§ Identity

Operator
Country
TBD
Launch date
2025-12-28
Launch site
VOSTO
Launch vehicle
Mass (kg)
RCS (m²)

External: N2YO · Heavens-Above · Gunter

§ Orbital elements

Epoch: 2026-05-25T03:38:47.503680Z

Period
93.30 min
Inclination
97.3914°
Eccentricity
0.0005301
Mean motion
15.43436079 rev/d
Perigee alt
432.4 km
Apogee alt
439.6 km
Semi-major
6,814.1 km
B*
2.5761e-3
RAAN
222.2155°
Arg perigee
105.2151°
Mean anomaly
254.9683°
Rev number
1,971

§ Raw data

2025-313BE1 67482U 25313BE  26145.15193870  .00116753  00000+0  25761-2 0  99982 67482  97.3914 222.2155 0005301 105.2151 254.9683 15.43436079 19712

JSON: /api/v1/satellites/67482 · /tle

For live sub-satellite position, see the globe view (requires WebGL).

§ Visibility from observer

Set your observer location to see the next 7 days of passes ≥ 10°. The values pass through the URL so the page stays shareable.

No JS? Fill the form by hand. The geolocation button needs JavaScript.